User: anonymous   Login
Location: *
(37.5724°S, 58.0067°E)
Time: 00:18:52
(UTC+00:00)
Language:

OAO 3 Rocket - Orbit

View from above orbital plane
View from above orbital plane
View from above satellite
View from above satellite

Ground track
Ground track

The orbit data is extracted from the following two-line orbital elements,

1  6155U 72065B   20336.45398484 +.00000209 +00000-0 +36534-4 0  9992
2  6155 035.0052 352.1188 0037327 116.2273 244.2269 14.71625802557233
Epoch (UTC): 01 December 2020 10:53:44
Eccentricity: 0.0037327
inclination: 35.0052°
perigee height: 629 km
apogee height: 682 km
right ascension of ascending node: 352.1188°
argument of perigee: 116.2273°
revolutions per day: 14.71625802
mean anomaly at epoch: 244.2269°
orbit number at epoch: 55723

The dashed part of the orbit path shows where the satellite is in the earth's shadow,  

DLR